Home > Time Zones > World Clock > Weather > U.S.A. > Gary > Past weeks

Flag for U.S.A. Weather past 2 weeks in Gary, Indiana, U.S.A.

Now
45 °F

Sunny.


Feels Like: 40 °F
Forecast: 38 / 50 °F
Wind: 9 mph from Northeast

Location: Lansing Municipal Airport


UV Index: 5 (Moderate)

Visibility: 7 mi


Pressure: 30.32 "Hg

Humidity: 73%

Dew point: 37 °F

Location of GaryLocation

Historic Weather in Gary

°F

Gary temperature yesterday

Maximum temperature yesterday: 63 °F (at 1:55 PM)
Minimum temperature yesterday: 38 °F (at 6:15 AM)
Average temperature yesterday: 51 °F

Past Weeks' High & Low Weather Summary

 TemperatureHumidityPressure
High78 °F (Apr 12, 3:35 PM)97% (Apr 4, 6:55 AM)30.34 "Hg (Apr 4, 6:55 AM)
Low27 °F (Apr 15, 6:35 AM)15% (Apr 11, 3:55 PM)29.39 "Hg (Apr 14, 2:15 AM)
Average46 °F63%29.93 "Hg
* Reported Apr 3 8:15 AM — Apr 18 8:15 AM, Gary, Weather by CustomWeather, © 2014

Note: Actual official high and low records may vary slightly from our data, if they occured in-between our weather recording intervals... More about our weather records

Advertising

Historic Weather Conditions — Data for Previous 24 hours

 ConditionsComfort  
Time TempWeatherWind HumidityBarometerVisibility
8:15 AM
Apr 18
44 °FSunny.7 mph77%30.32 "Hg7 mi
7:55 AM43 °FSunny.6 mph79%30.32 "Hg7 mi
7:35 AM43 °FSunny.5 mph81%30.31 "Hg7 mi
7:15 AM42 °FSunny.6 mph80%30.31 "Hg7 mi
6:55 AM42 °FScattered clouds.3 mph79%30.30 "Hg7 mi
6:35 AM42 °FScattered clouds.3 mph79%30.29 "Hg7 mi
6:15 AM42 °FBroken clouds.No wind78%30.29 "Hg7 mi
5:55 AM43 °FPassing clouds.6 mph78%30.29 "Hg10 mi
5:35 AM44 °FPassing clouds.5 mph76%30.27 "Hg10 mi
5:15 AM47 °FOvercast.No wind73%30.26 "Hg10 mi
4:55 AM48 °FMostly cloudy.No wind68%30.25 "Hg10 mi
4:35 AM48 °FMostly cloudy.No wind67%30.24 "Hg10 mi
4:15 AM49 °FOvercast.3 mph68%30.24 "Hg10 mi
3:55 AM49 °FOvercast.3 mph69%30.24 "Hg10 mi
3:35 AM48 °FMostly cloudy.No wind71%30.24 "Hg10 mi
3:15 AM48 °FPassing clouds.No wind71%30.24 "Hg10 mi
2:55 AM48 °FPassing clouds.3 mph72%30.25 "Hg10 mi
2:35 AM49 °FClear.5 mph69%30.25 "Hg10 mi
2:15 AM49 °FPassing clouds.5 mph72%30.25 "Hg10 mi
1:55 AM48 °FMostly cloudy.3 mph79%30.25 "Hg10 mi
1:35 AM47 °FMostly cloudy.No wind84%30.26 "Hg10 mi
1:15 AM46 °FOvercast.No wind88%30.26 "Hg10 mi
12:55 AM47 °FMostly cloudy.3 mph84%30.26 "Hg10 mi
12:35 AM49 °FMostly cloudy.5 mph79%30.26 "Hg10 mi
12:15 AM50 °FLight rain. Overcast.No wind72%30.26 "Hg10 mi
11:55 PM
Apr 17
51 °FLight rain. Overcast.3 mph67%30.26 "Hg10 mi
11:35 PM52 °FMostly cloudy.5 mph60%30.26 "Hg10 mi
11:15 PM53 °FMostly cloudy.No wind57%30.25 "Hg10 mi
10:55 PM53 °FOvercast.3 mph56%30.25 "Hg10 mi
10:15 PM54 °FMostly cloudy.5 mph55%30.25 "Hg10 mi
9:55 PM54 °FOvercast.5 mph55%30.25 "Hg10 mi
9:15 PM55 °FOvercast.3 mph55%30.25 "Hg10 mi
8:55 PM55 °FOvercast.7 mph53%30.25 "Hg10 mi
8:15 PM55 °FOvercast.5 mph53%30.24 "Hg10 mi
7:55 PM56 °FOvercast.6 mph52%30.23 "Hg10 mi
7:35 PM57 °FPassing clouds.7 mph50%30.22 "Hg10 mi
7:15 PM58 °FOvercast.8 mph47%30.21 "Hg10 mi
6:55 PM58 °FOvercast.8 mph47%30.21 "Hg10 mi
6:15 PM59 °FScattered clouds.8 mph44%30.21 "Hg10 mi
5:55 PM59 °FSunny.10 mph44%30.21 "Hg10 mi
5:35 PM60 °FSunny.10 mph43%30.21 "Hg10 mi
5:15 PM60 °FScattered clouds.10 mph43%30.20 "Hg10 mi
4:55 PM59 °FScattered clouds.12 mph43%30.20 "Hg10 mi
4:15 PM60 °FSunny.13 mph40%30.20 "Hg10 mi
3:55 PM60 °FSunny.15 mph40%30.20 "Hg10 mi
3:35 PM60 °FSunny.13 mph39%30.19 "Hg10 mi
3:15 PM61 °FSunny.12 mph38%30.20 "Hg10 mi
2:55 PM61 °FSunny.14 mph39%30.20 "Hg10 mi
2:35 PM61 °FSunny.13 mph37%30.20 "Hg10 mi
2:15 PM62 °FSunny.15 mph38%30.20 "Hg10 mi
1:55 PM63 °FSunny.10 mph37%30.19 "Hg10 mi
1:35 PM62 °FSunny.9 mph38%30.19 "Hg10 mi
1:15 PM61 °FSunny.16 mph39%30.20 "Hg10 mi
12:55 PM60 °FSunny.14 mph39%30.20 "Hg10 mi
11:55 AM58 °FSunny.15 mph43%30.20 "Hg10 mi
11:15 AM56 °FSunny.17 mph44%30.20 "Hg10 mi
10:55 AM55 °FSunny.17 mph44%30.20 "Hg10 mi
10:15 AM54 °FSunny.16 mph44%30.19 "Hg10 mi
9:55 AM53 °FSunny.17 mph45%30.19 "Hg10 mi
9:35 AM52 °FSunny.22 mph47%30.19 "Hg10 mi
9:15 AM49 °FScattered clouds.20 mph48%30.19 "Hg10 mi
Weather by CustomWeather, © 2014

See weather overview